Location: Roland
(31.1349°N, 85.4372°W)
Time: 23:00:49
(UTC+00:00)

Tiros 1 - Pass Details

Date: 21 April 2021
Orbit: 630 x 664 km, 48.4° (Epoch: 06 May)

Event Time Altitude Azimuth Distance (km) Brightness Sun altitude
Rises 21:52:07 0° 299° (WNW) 2,912 11.3 29.3°
Reaches altitude 10° 21:54:39 10° 289° (WNW) 2,003 11.0 28.8°
Maximum altitude 21:58:39 30° 228° (SW) 1,129 9.5 27.9°
Drops below altitude 10° 22:02:41 10° 167° (SSE) 2,005 9.7 27.1°
Sets 22:05:13 0° 157° (SSE) 2,915 10.3 26.5°
